Home > Weather > Kalisz > Past weeks

Flag for Poland Weather for the Past 2 Weeks in Kalisz, Poland

Now
62 °F

Overcast.


Feels Like: 62 °F
Forecast: 44 / 70 °F
Wind: 3 mph from Northwest

Location: Kalisz

Current Time: May 5, 2016 at 12:59:53 PM

Latest Report: May 5, 2016 at 12:00 PM


Visibility: 22 mi

Pressure: 30.32 "Hg

Humidity: 51%

Dew Point: 44 °F

Location of KaliszLocation

Historic Weather in Kalisz — Graph

°F

Kalisz Temperature Yesterday

Maximum temperature yesterday: 59 °F (at 5:00 PM)
Minimum temperature yesterday: 50 °F (at 5:00 AM)
Average temperature yesterday: 54 °F

High & Low Weather Summary for the Past Weeks

 TemperatureHumidityPressure
High65 °F (May 3, 2:00 PM)99% (May 4, 5:00 AM)30.34 "Hg (May 4, 5:00 AM)
Low31 °F (Apr 25, 6:00 AM)31% (Apr 29, 6:00 PM)29.55 "Hg (Apr 26, 5:00 PM)
Average49 °F67%30.02 "Hg
* Reported Apr 20 11:00 AM — May 5 11:00 AM, Kalisz, Weather by CustomWeather, © 2016

Note: Actual official high and low records may vary slightly from our data, if they occured in-between our weather recording intervals... More about our weather records

Advertising

Kalisz Weather History for the Previous 24 Hours

Scroll right to see more
 ConditionsComfort  
Time TempWeatherWind HumidityBarometerVisibility
11:00 AM
Thu, May 5
59 °FOvercast.3 mph57%30.33 "Hg15 mi
10:00 AM56 °FPartly sunny.5 mph64%30.33 "Hg17 mi
9:00 AM54 °FScattered clouds.5 mph71%30.33 "Hg22 mi
8:00 AM50 °FScattered clouds.6 mph76%30.33 "Hg17 mi
7:00 AM47 °FOvercast.5 mph88%30.32 "Hg7 mi
6:00 AM46 °FOvercast.3 mph91%30.32 "Hg7 mi
5:00 AM46 °FOvercast.3 mph88%30.31 "Hg9 mi
4:00 AM47 °FOvercast.5 mph87%30.29 "Hg11 mi
3:00 AM49 °FOvercast.6 mph86%30.29 "Hg10 mi
2:00 AM49 °FOvercast.7 mph90%30.28 "Hg9 mi
1:00 AM50 °FOvercast.6 mph91%30.29 "Hg7 mi
12:00 AM51 °FOvercast.2 mph92%30.30 "Hg7 mi
11:00 PM
Wed, May 4
51 °FOvercast.1 mph93%30.29 "Hg6 mi
10:00 PM52 °FSprinkles. Overcast.3 mph92%30.28 "Hg6 mi
9:00 PM54 °FSprinkles. Overcast.2 mph87%30.27 "Hg7 mi
8:00 PM54 °FSprinkles. Overcast.2 mph82%30.25 "Hg11 mi
7:00 PM57 °FOvercast.7 mph73%30.22 "Hg16 mi
6:00 PM59 °FOvercast.6 mph73%30.20 "Hg16 mi
5:00 PM59 °FOvercast.7 mph72%30.19 "Hg19 mi
4:00 PM59 °FPartly sunny.9 mph77%30.17 "Hg12 mi
3:00 PM57 °FOvercast.7 mph85%30.18 "Hg12 mi
2:00 PM56 °FOvercast.7 mph88%30.18 "Hg9 mi
1:00 PM55 °FOvercast.7 mph93%30.18 "Hg6 mi
12:00 PM55 °FOvercast.7 mph93%30.17 "Hg6 mi
Weather by CustomWeather, © 2016

See weather overviewHow to use our weather pages